Regional Weather Roundup
Issued by NWS

Home | Current Version | Previous Version | Text Only | Print | Product List | Glossary Off
Versions: 1 2 3 4 5 6 7 8 9 10 11 12 13 14 15 16 17 18 19 20 21 22 23 24 25 26 27 28 29 30 31 32 33 34 35 36 37 38 39 40 41 42 43 44 45 46 47 48 49 50

000
ASUS45 KBOU 201607
RWRCO

WEATHER ROUNDUP FOR COLORADO
NATIONAL WEATHER SERVICE DENVER/BOULDER CO
1000 AM MDT WED AUG 20 2014

NOTE: "FAIR" INDICATES FEW OR NO CLOUDS BELOW 12000 FEET WITH NO
SIGNIFICANT WEATHER AND/OR OBSTRUCTIONS TO VISIBILITY.

COZ001>005-013-030-031-201700-
...NORTHWEST COLORADO...

CITY           SKY/WX    TMP DP  RH WIND       PRES   REMARKS
CRAIG          PTSUNNY   65  53  65 SW14      30.10R
HAYDEN         PTSUNNY   63  52  67 NW6       30.12R
MEEKER         PTSUNNY   65  53  65 SW7       30.11S
MOUNT WERNER   NOT AVBL
STEAMBOAT SPGS CLOUDY    59  54  82 E3        30.13S
WALDEN         CLOUDY    55  46  71 S10G17    30.18R
$$

COZ006>008-011-201700-
...WEST CENTRAL VALLEYS...

CITY           SKY/WX    TMP DP  RH WIND       PRES   REMARKS
GRAND JUNCTION PTSUNNY   68  60  75 CALM      30.05R
MONTROSE       PTSUNNY   70  55  59 NW8       30.12R
EAGLE          PTSUNNY   64  55  72 CALM      30.16R
RIFLE          PTSUNNY   65  57  75 CALM      30.08S
DELTA          PTSUNNY   73  58  59 CALM      30.08S
NUCLA          SUNNY     70  48  46 CALM      30.16R
$$

COZ017>023-064>068-201700-
...SOUTHWEST COLORADO...

CITY           SKY/WX    TMP DP  RH WIND       PRES   REMARKS
DURANGO        MOSUNNY   67  51  56 MISG      30.17S
CORTEZ         SUNNY     69  53  56 CALM      30.15R
PAGOSA SPRINGS   N/A     59  52  76 CALM      30.24R
TELLURIDE      SUNNY     59  48  67 CALM      30.30S
WOLF CREEK PAS NOT AVBL
$$

COZ009-010-012-014-032>034-037-058>063-201700-
...CENTRAL COLORADO...

CITY           SKY/WX    TMP DP  RH WIND       PRES   REMARKS
ASPEN          PTSUNNY   60  52  74 CALM      30.19S
BUENA VISTA    PTSUNNY   65  46  50 N5        30.17S
COPPER MTN     PTSUNNY   50  43  76 W8G21     30.45R
BERTHOUD PASS  FOG       41  39  93 NW24G30   30.45R VSB 1/4
COTTONWOOD PAS PTSUNNY   61  43  51 N10G17    30.29S
GUNNISON       PTSUNNY   63  46  55 N5        30.22S
KREMMLING      MOSUNNY   63  52  67 SW7       30.18S
LEADVILLE      PTSUNNY   55  43  63 N9        30.30R
MONARCH PASS   FOG       43  41  93 W29       30.54R VSB<1/4
SALIDA         PTSUNNY   72  47  41 SW12G20   30.22S
SUNLIGHT       CLOUDY    50  50 100 CALM      30.39R
WILKERSON PASS NOT AVBL
$$

COZ069>075-201700-
...SAN LUIS VALLEY/SANGRE DE CRISTO MOUNTAINS...

CITY           SKY/WX    TMP DP  RH WIND       PRES   REMARKS
ALAMOSA        PTSUNNY   69  48  47 SW10      30.17R
LA VETA PASS   NOT AVBL
SAGUACHE       PTSUNNY   64  46  52 NW12      30.20S
$$

COZ035-036-038>040-201700-
...NORTHERN COLORADO FRONT RANGE...

CITY           SKY/WX    TMP DP  RH WIND       PRES   REMARKS
DENVER INTL AP MOSUNNY   74  53  48 CALM      29.97R
DMNS CITY PARK   N/A     76  50  40 E2        29.96S
AURORA         MOSUNNY   72  53  50 VRB2      29.99S
FRONT RANGE AP NOT AVBL
ERIE MUNI ARPT SUNNY     78  49  35 E7        29.94S
BOULDER MUN AP MOSUNNY   79  50  36 E5        29.94S
CENTENNIAL     MOSUNNY   74  50  42 N3        29.99S
BROOMFIELD     NOT AVBL
FORT COLLINS   SUNNY     75  54  46 SE7       29.94S
LONGMONT       SUNNY     81  51  35 CALM      29.95S
$$

COZ041-046-047-076>085-087-088-201700-
...PIKES PEAK/PALMER DIVIDE AND SOUTHERN FOOTHILLS...

CITY           SKY/WX    TMP DP  RH WIND       PRES   REMARKS
COLO. SPRINGS  PTSUNNY   77  49  37 CALM      30.01S
A. F. ACADEMY  MOSUNNY   74  49  40 W9        30.03S
ELLICOTT       MOSUNNY   72  49  44 CALM      30.00S
FALCON         MOSUNNY   76  44  32 NE3       30.06F
FORT CARSON    PTSUNNY   75  53  47 NE2       29.99R
LIMON          MOSUNNY   77  47  34 NW9       29.96R
MONUMENT HILL  SUNNY     70  46  43 NW7       30.07R
TRINIDAD       CLOUDY    77  51  40 W6        30.00R
$$

COZ042>045-048>051-090-091-201700-
...NORTHEAST COLORADO...

CITY           SKY/WX    TMP DP  RH WIND       PRES   REMARKS
GREELEY ARPT   SUNNY     79  55  44 S6        29.93R
AKRON          MOSUNNY   76  56  49 VRB7      29.91S
BURLINGTON     MOSUNNY   84  54  35 W14G21    29.87R
WRAY             N/A     73  63  70 NW6       29.85S
STERLING       MOSUNNY   77  64  65 SE5       29.86S
HOLYOKE        NOT AVBL
FORT MORGAN    MOSUNNY   76  57  52 SE6       29.91S
$$

COZ086-089-092>099-201700-
...SOUTHEAST COLORADO...

CITY           SKY/WX    TMP DP  RH WIND       PRES   REMARKS
PUEBLO         PTSUNNY   74  54  49 SW6       29.91S
LA JUNTA       MOSUNNY   82  53  36 W8        29.87S
LAMAR          MOSUNNY   84  57  39 NW3       29.83S
SPRINGFIELD      N/A     86  51  29 SW14G22   29.89S
$$



USA.gov is the U.S. government's official web portal to all federal, state and local government web resources and services.